TimeMDT,TemperatureF,Dew PointF,Humidity,Sea Level PressureIn,VisibilityMPH,Wind Direction,Wind SpeedMPH,Gust SpeedMPH,PrecipitationIn,Events,Conditions,WindDirDegrees,DateUTC
12:53 AM,69.1,26.1,20,29.78,10.0,South,16.1,26.5,N/A,,Mostly Cloudy,180,2013-09-30 06:53:00
1:53 AM,70.0,24.1,18,29.77,10.0,South,18.4,27.6,N/A,,Mostly Cloudy,180,2013-09-30 07:53:00
2:53 AM,69.1,23.0,18,29.77,10.0,South,20.7,-,N/A,,Mostly Cloudy,180,2013-09-30 08:53:00
3:53 AM,69.1,21.9,17,29.76,10.0,South,23.0,28.8,N/A,,Scattered Clouds,170,2013-09-30 09:53:00
4:53 AM,68.0,21.0,17,29.77,10.0,South,19.6,29.9,N/A,,Scattered Clouds,170,2013-09-30 10:53:00
5:53 AM,68.0,21.0,17,29.77,10.0,South,17.3,25.3,N/A,,Scattered Clouds,180,2013-09-30 11:53:00
6:53 AM,68.0,21.9,17,29.78,10.0,South,17.3,24.2,N/A,,Mostly Cloudy,180,2013-09-30 12:53:00
7:53 AM,68.0,21.9,17,29.78,10.0,SSE,15.0,24.2,N/A,,Mostly Cloudy,150,2013-09-30 13:53:00
8:53 AM,69.1,21.9,17,29.79,10.0,South,17.3,21.9,N/A,,Mostly Cloudy,180,2013-09-30 14:53:00
9:53 AM,72.0,21.9,15,29.80,10.0,South,15.0,24.2,N/A,,Mostly Cloudy,180,2013-09-30 15:53:00
10:53 AM,75.0,23.0,14,29.80,10.0,South,18.4,26.5,N/A,,Scattered Clouds,180,2013-09-30 16:53:00
11:53 AM,81.0,24.1,12,29.78,10.0,West,16.1,23.0,N/A,,Scattered Clouds,260,2013-09-30 17:53:00
12:08 PM,80.6,24.8,13,29.94,10.0,West,16.1,24.2,N/A,,Scattered Clouds,270,2013-09-30 18:08:00
12:53 PM,82.0,25.0,12,29.75,10.0,WSW,11.5,18.4,N/A,,Scattered Clouds,250,2013-09-30 18:53:00
1:53 PM,82.9,25.0,12,29.73,10.0,SW,15.0,21.9,N/A,,Scattered Clouds,220,2013-09-30 19:53:00
2:53 PM,81.0,27.0,14,29.73,10.0,West,10.4,-,N/A,,Scattered Clouds,280,2013-09-30 20:53:00
3:53 PM,82.9,28.9,14,29.73,10.0,WNW,15.0,27.6,N/A,,Scattered Clouds,290,2013-09-30 21:53:00
4:53 PM,82.0,27.0,13,29.72,10.0,West,12.7,27.6,N/A,,Scattered Clouds,280,2013-09-30 22:53:00
5:53 PM,79.0,30.0,17,29.72,10.0,WNW,9.2,-,N/A,,Scattered Clouds,300,2013-09-30 23:53:00
6:53 PM,75.9,35.1,23,29.73,10.0,West,4.6,-,N/A,,Scattered Clouds,270,2013-10-01 00:53:00
7:53 PM,73.0,37.0,27,29.75,10.0,NNW,6.9,-,N/A,,Partly Cloudy,330,2013-10-01 01:53:00
8:53 PM,71.1,36.0,28,29.78,10.0,NW,12.7,-,N/A,,Partly Cloudy,320,2013-10-01 02:53:00
9:53 PM,64.0,43.0,46,29.82,10.0,NW,11.5,-,N/A,,Clear,310,2013-10-01 03:53:00
10:53 PM,61.0,43.0,52,29.85,10.0,WNW,9.2,-,N/A,,Clear,300,2013-10-01 04:53:00
11:53 PM,59.0,42.1,53,29.85,10.0,NNW,4.6,-,N/A,,Clear,330,2013-10-01 05:53:00